User: anonymous   Login
Location: Unspecified
(0.0000°N, 0.0000°E)
Time: 01:57:37
(UTC+00:00)
Language:

ITAMSAT 1 - Orbit

View from above orbital plane
View from above orbital plane
View from above satellite
View from above satellite

Ground track
Ground track

The orbit data is extracted from the following two-line orbital elements,

1 22826U 93061D   21338.04010942  .00000028  00000-0  28474-4 0  9995
2 22826  98.9017 359.6323 0008045 245.2810 114.7534 14.30475062470475
Epoch (UTC): 04 December 2021 00:57:45
Eccentricity: 0.0008045
inclination: 98.9017°
perigee height: 784 km
apogee height: 796 km
right ascension of ascending node: 359.6323°
argument of perigee: 245.2810°
revolutions per day: 14.30475062
mean anomaly at epoch: 114.7534°
orbit number at epoch: 47047

The dashed part of the orbit path shows where the satellite is in the earth's shadow,  

DLR